Retour au catalogue

STARLINK-4700

ActifCommunicationsVLEO
NORAD 53722·PAYLOAD·🇺🇸 United States

Lancé Sep 5, 2022 depuis Cape Canaveral Space Force Station

Loading…

Prochains Passages (prochaines 24 heures)

TLE

FraisSource: CelesTrak SupGP

Époque: Sep 14, 2026, 21:22 UTC

1 53722C 22107Y   26257.89076389 -.00012393  00000+0 -36628-3 0  2577
2 53722  53.1575 111.6397 0001272  97.4073 299.8846 15.34386495    12

Suivez STARLINK-4700 en temps réel avec AllMySat

Download on the App Store